Regional Weather Roundup
Issued by NWS

Home | Current Version | Previous Version | Graphics & Text | Print | Product List | Glossary Off
Versions: 1 2 3 4 5 6 7 8 9 10 11 12 13 14 15 16 17 18 19 20 21 22 23 24 25 26 27 28 29 30 31 32 33 34 35 36 37 38 39 40 41 42 43 44 45 46 47 48 49 50

000
ASUS43 KTOP 052359
RWRKS

WEATHER ROUNDUP FOR KANSAS
NATIONAL WEATHER SERVICE GOODLAND KS
600 PM CST THU MAR 05 2015

NOTE:  "FAIR" INDICATES FEW OR NO CLOUDS BELOW 12,000 FEET WITH NO
SIGNIFICANT WEATHER AND/OR OBSTRUCTIONS TO VISIBILITY.

KSZ001>006-013>018-027>032-041>047-060100-
NORTHWEST KANSAS

CITY           SKY/WX    TMP DP  RH WIND       PRES   REMARKS
GOODLAND       MOCLDY    42  14  32 SW10      30.25R
6HR MIN TEMP:  40; 6HR MAX TEMP:  47;

HAYS           MOCLDY    43   3  19 SW6       30.32S
HILL CITY      MOCLDY    47   8  20 SW7       30.27F
6HR MIN TEMP:  36; 6HR MAX TEMP:  50;

RUSSELL        MOCLDY    43   4  19 S6        30.32S
6HR MIN TEMP:  36; 6HR MAX TEMP:  46;

$$

KSZ061>065-074>080-084>089-060100-
SOUTHWEST KANSAS

CITY           SKY/WX    TMP DP  RH WIND       PRES   REMARKS
DODGE CITY     CLEAR     45   7  21 SW7       30.32F
6HR MIN TEMP:  38; 6HR MAX TEMP:  47;

ELKHART          N/A     45  15  30 S10         N/A
GARDEN CITY    CLEAR     41  10  28 S7        30.29S
6HR MIN TEMP:  37; 6HR MAX TEMP:  46;

GREAT BEND     CLEAR     45   9  23 SW8       30.34S
LIBERAL        CLEAR     45  18  33 S6        30.34S
$$

KSZ066>073-081>083-090>101-060100-
SOUTHEAST KANSAS

CITY           SKY/WX    TMP DP  RH WIND       PRES   REMARKS
CHANUTE        CLEAR     36  15  42 SE8       30.47S
6HR MIN TEMP:  31; 6HR MAX TEMP:  40;

COFFEYVILLE    CLEAR     39  17  41 SE7       30.49S
6HR MIN TEMP:  31; 6HR MAX TEMP:  41;

HUTCHINSON     CLEAR     43  17  35 SW12      30.39R
6HR MIN TEMP:  34; 6HR MAX TEMP:  46;

MEDICINE LODGE   N/A     45  13  27 S7        30.39R
NEWTON         CLEAR     39  14  35 SW8       30.42R
PARSONS        CLEAR     39  15  37 S3        30.49S
6HR MIN TEMP:  33; 6HR MAX TEMP:  41;

WICHITA INTL   CLEAR     43  12  28 W7        30.41S
6HR MIN TEMP:  38; 6HR MAX TEMP:  45;

WICHITA JABRA  CLEAR     41  10  28 SW8       30.41S
6HR MIN TEMP:  36; 6HR MAX TEMP:  44;

WINFIELD       CLEAR     40  17  39 SW10      30.45S WCI  33
6HR MIN TEMP:  37; 6HR MAX TEMP:  45;

$$

KSZ007>012-019>026-033>040-048>060-102>105-060100-
NORTHEAST KANSAS

CITY           SKY/WX    TMP DP  RH WIND       PRES   REMARKS
CONCORDIA      PTCLDY    37   5  26 S5        30.36S
6HR MIN TEMP:  29; 6HR MAX TEMP:  41;

EMPORIA        CLEAR     34  18  52 E10       30.43R WCI  26
6HR MIN TEMP:  28; 6HR MAX TEMP:  40;

LAWRENCE       CLEAR     31  11  43 SE9       30.49S
6HR MIN TEMP:  25; 6HR MAX TEMP:  33;

MANHATTAN      CLEAR     38   9  30 SW3       30.41S
6HR MIN TEMP:  29; 6HR MAX TEMP:  41; 6HR PCP: TRACE;

OLATHE IND     CLEAR     30   9  41 S6        30.49S
6HR MIN TEMP:  23; 6HR MAX TEMP:  32; 6HR PCP: TRACE;

OLATHE EXE     CLEAR     30   7  37 S5        30.48S
6HR MIN TEMP:  24; 6HR MAX TEMP:  33;

SALINA         CLEAR     40   5  23 S6        30.38S
6HR MIN TEMP:  35; 6HR MAX TEMP:  47;

TOPEKA BILLARD CLEAR     34  10  37 S8        30.47S
6HR MIN TEMP:  25; 6HR MAX TEMP:  36;

TOPEKA FORBES  CLEAR     34  11  38 S8        30.45F
6HR MIN TEMP:  26; 6HR MAX TEMP:  37;

$$


USA.gov is the U.S. government's official web portal to all federal, state and local government web resources and services.